FW4331 Weather Reports


time (UTC)temp
C
wind
direction
speed
KPH
gust
KPH
rain 1hr
cm
rain 24hr
cm
rain mn
cm
humidity
%
barometer
mb
20260902201507 23 239 0.0 6.4 0.03 0.03 0.03 43 1016.2
20260902200004 23 266 0.0 3.2 0.03 0.03 0.03 47 1016.6
20260902194602 24 45 0.0 1.6 0.03 0.03 0.03 55 1016.7
20260902193059 25 6 0.0 3.2 0.03 0.03 0.03 59 1016.8
20260902191557 25 273 1.6 8.0 0.00 0.00 0.00 62 1016.5
20260902190054 27 53 6.4 14.5 0.00 0.00 0.00 55 1017.0
20260902184551 29 114 9.7 24.1 0.00 0.00 0.00 52 1016.2
20260902183050 31 39 12.9 27.4 0.00 0.00 0.00 49 1016.0
20260902181555 32 133 1.6 12.9 0.00 0.00 0.00 45 1015.8
20260902180055 33 91 3.2 12.9 0.00 0.00 0.00 46 1015.8
20260902174553 33 298 1.6 8.0 0.00 0.00 0.00 44 1016.0
20260902173046 34 277 1.6 8.0 0.00 0.00 0.00 43 1016.2
20260902171554 33 44 1.6 6.4 0.00 0.00 0.00 44 1016.3
20260902170042 32 319 1.6 11.3 0.00 0.00 0.00 45 1016.5
20260902164640 33 298 3.2 8.0 0.00 0.00 0.00 46 1016.6
20260902163038 32 338 0.0 4.8 0.00 0.00 0.00 47 1016.4
20260902161541 31 252 1.6 8.0 0.00 0.00 0.00 48 1016.6
20260902160034 31 268 1.6 9.7 0.00 0.00 0.00 50 1016.6
20260902154533 31 237 4.8 8.0 0.00 0.00 0.00 50 1016.5
20260902153035 31 223 4.8 9.7 0.00 0.00 0.00 51 1016.4
20260902151531 31 213 1.6 8.0 0.00 0.00 0.00 48 1016.6
20260902150030 30 289 1.6 6.4 0.00 0.00 0.00 50 1016.5
20260902144525 30 160 1.6 9.7 0.00 0.00 0.00 50 1016.5
20260902143023 30 176 1.6 6.4 0.00 0.00 0.00 51 1016.3
20260902141524 30 79 3.2 6.4 0.00 0.00 0.00 52 1016.5
20260902140016 29 112 3.2 8.0 0.00 0.00 0.00 52 1016.5
20260902134506 28 166 1.6 6.4 0.00 0.00 0.00 53 1016.3
20260902133005 28 262 0.0 3.2 0.00 0.00 0.00 54 1016.4
20260902131600 28 103 0.0 6.4 0.00 0.00 0.00 54 1016.4
20260902130055 27 135 3.2 6.4 0.00 0.00 0.00 55 1016.4
20260902124555 27 29 0.0 3.2 0.00 0.00 0.00 55 1016.4
20260902123147 26 131 0.0 4.8 0.00 0.00 0.00 55 1016.1
20260902121615 25 41 0.0 0.0 0.00 0.00 0.00 56 1016.0
20260902120044 25 330 0.0 0.0 0.00 0.00 0.00 57 1016.2
20260902114603 24 22 0.0 0.0 0.00 0.00 0.00 59 1016.2
20260902113047 23 27 0.0 0.0 0.00 0.00 0.00 59 1016.0
20260902111530 -17 0.0 0.0 0.00 0.00 0.00 1015.9
20260902110036 -17 0.0 0.0 0.00 0.00 0.00 1016.0
20260902104532 -17 0.0 0.0 0.00 0.00 0.00 1016.0
20260902103021 -17 0.0 0.0 0.00 0.00 0.00 1016.1
20260902101510 -17 352 0.0 0.0 0.00 0.00 0.00 1015.7
20260902100011 23 356 0.0 0.0 0.00 0.00 0.00 62 1015.6
20260902094503 24 356 0.0 0.0 0.00 0.00 0.00 62 1015.5
20260902093111 24 356 0.0 0.0 0.00 0.00 0.00 61 1015.5
20260902091559 24 349 0.0 0.0 0.00 0.00 0.00 61 1015.4
20260902090101 24 328 0.0 1.6 0.00 0.00 0.00 61 1015.4
20260902084554 24 328 0.0 0.0 0.00 0.00 0.00 62 1015.5
20260902083052 24 328 0.0 0.0 0.00 0.00 0.00 61 1015.4
20260902081553 24 328 0.0 1.6 0.00 0.00 0.00 61 1015.3
20260902080045 25 328 0.0 0.0 0.00 0.00 0.00 60 1015.4
20260902074555 25 328 0.0 1.6 0.00 0.00 0.00 59 1015.3
20260902073043 25 329 0.0 1.6 0.00 0.00 0.00 59 1015.3
20260902071538 26 27 1.6 8.0 0.00 0.00 0.00 57 1015.2
20260902070035 26 20 1.6 8.0 0.00 0.00 0.00 57 1015.2
20260902064536 26 4 0.0 6.4 0.00 0.00 0.00 56 1015.1
20260902063034 26 49 3.2 11.3 0.00 0.00 0.00 54 1015.1
20260902061540 26 18 4.8 14.5 0.00 0.00 0.00 54 1015.3
20260902060038 26 67 0.0 9.7 0.00 0.00 0.00 55 1015.1
20260902054536 26 238 0.0 1.6 0.00 0.00 0.00 54 1014.9
20260902053024 27 274 0.0 3.2 0.00 0.00 0.00 53 1015.0
20260902051520 26 21 0.0 4.8 0.00 0.00 0.00 54 1014.8
20260902050013 25 76 0.0 1.6 0.00 0.00 0.00 57 1014.6
20260902044511 25 246 0.0 1.6 0.00 0.00 0.00 60 1014.6
20260902043007 25 262 0.0 0.0 0.00 0.00 0.00 59 1014.6
20260902041605 25 262 0.0 0.0 0.00 0.00 0.00 58 1014.8
20260902034605 25 262 0.0 0.0 0.00 0.00 0.00 61 1014.4
20260902033104 25 262 0.0 0.0 0.00 0.00 0.00 62 1014.2
20260902031554 25 262 0.0 0.0 0.00 0.00 0.00 62 1014.0
20260902030051 26 261 0.0 0.0 0.00 0.00 0.00 61 1013.7
20260902024549 26 352 0.0 1.6 0.00 0.00 0.00 61 1014.0
20260902023050 27 352 0.0 1.6 0.00 0.00 0.00 59 1014.2
20260902021545 27 352 0.0 1.6 0.00 0.00 0.00 57 1014.1
20260902020053 27 352 0.0 0.0 0.00 0.00 0.00 57 1013.9
20260902014541 28 352 0.0 1.6 0.00 0.00 0.00 57 1013.9
20260902013041 28 358 0.0 6.4 0.00 0.00 0.00 57 1013.6
20260902011538 27 355 0.0 3.2 0.00 0.00 0.00 58 1013.4
20260902010036 28 240 0.0 0.0 0.00 0.00 0.00 59 1013.1
20260902004533 28 240 0.0 0.0 0.00 0.00 0.00 59 1013.1
20260902003033 29 240 0.0 6.4 0.00 0.00 0.00 57 1012.7
20260902001543 28 271 0.0 0.0 0.00 0.00 0.00 57 1012.5
20260902000037 29 271 0.0 1.6 0.00 0.00 0.00 55 1012.2
20260901234523 30 311 0.0 4.8 0.00 0.00 0.00 55 1012.2
20260901233022 30 328 0.0 1.6 0.00 0.00 0.00 54 1012.5
20260901231522 31 328 0.0 3.2 0.00 0.00 0.00 53 1012.5
20260901230021 31 255 0.0 3.2 0.00 0.00 0.00 52 1012.5
20260901224526 31 259 0.0 4.8 0.00 0.00 0.00 51 1012.5
20260901223019 32 245 3.2 9.7 0.00 0.00 0.00 48 1012.5
20260901221517 33 255 4.8 9.7 0.00 0.00 0.00 47 1012.6
20260901220026 32 226 1.6 4.8 0.00 0.00 0.00 48 1012.7
20260901214517 32 284 0.0 8.0 0.00 0.00 0.00 49 1012.8
20260901213016 32 276 1.6 4.8 0.00 0.00 0.00 47 1012.9
20260901211528 33 297 1.6 6.4 0.00 0.00 0.00 45 1012.7
20260901210015 34 234 3.2 14.5 0.00 0.00 0.00 42 1012.7
20260901204521 34 224 4.8 11.3 0.00 0.00 0.00 42 1012.9
20260901203018 35 248 8.0 16.1 0.00 0.00 0.00 38 1013.0